Weather in Barvinkove

Ukraine / Kharkiv Region     48°54′35″N   37°01′23″E
temp.,
°C
wind,
m/s
gust,
m/s
humid.,
%
clouds,
%
prec.,
mm/h
press.,
hPa
HPBL,
m
12 may, wed
wed1200:00+7ene61190100 0.1 1015697
03:00+7e71191100 0.5 1016840
06:00+7e81292100 0.6 1016921
09:00+9e81082100 0.7 10161026
12:00+11ese81076100 0.4 10151226
15:00+10ese598279 3.1 1014972
18:00+12sse69757 3.3 1014989
21:00+8se49915 4.3 1014167
13 may, thu
thu1300:00+7se499867 0.0 1015199
03:00+6sse349767 0.0 101559
06:00+7se2396100 0.0 101570
09:00+13sse237891 0.0 1015476
12:00+19s356015 0.0 10141248
15:00+21sse455381 0.2 10131813
18:00+19e2269100 0.1 101339
21:00+17e4768100 0.1 1013130
14 may, fri
fri1400:00+14ese348497 0.0 101350
03:00+14ese4890100 0.0 1012138
06:00+15ese41191100 0.4 1012251
09:00+20sse697069 0.4 1011617
12:00+24sse5656100 0.0 10111062
15:00+26sse5650100 0.0 10111451
18:00+24sse3564100 0.0 101094
21:00+20sse3574100 0.0 101081
15 may, sat
sat1500:00+17w2282100 0.0 101041
03:00+15w2279100 0.0 101122
06:00+15wsw228092 0.0 101235
09:00+20sw34634 0.0 1012542
12:00+23sw45485 0.0 10131280
15:00+24sw464616 0.0 10132122
18:00+19wnw3566100 0.0 101385
21:00+17wnw116486 0.0 101311
16 may, sun
sun1600:00+16nne12704 0.0 101311
03:00+15ene337389 0.0 101330
06:00+15ne3377100 0.0 101456
09:00+21ene466348 0.0 1013441
12:00+25ene5652100 0.0 10121420
15:00+26ene5651100 0.0 10111625
18:00+24ne58665 0.0 1010464
21:00+19ne478669 0.1 1009106